EW4052 Weather Reports


time (UTC)temp
F
wind
direction
speed
knots
gust
knots
rain 1hr
in
rain 24hr
in
rain mn
in
humidity
%
barometer
mb
20260905233006 79 360 0.0 0.0 0.00 0.00 0.00 62 1012.8
20260905231559 79 360 0.0 0.0 0.00 0.00 0.00 66 1012.6
20260905230054 80 348 0.0 0.0 0.00 0.00 0.00 65 1012.6
20260905224550 80 342 0.0 5.2 0.00 0.00 0.00 68 1012.4
20260905223045 81 10 0.0 0.0 0.00 0.00 0.00 61 1012.1
20260905221542 81 32 0.0 3.5 0.00 0.00 0.00 63 1012.2
20260905220044 81 9 0.0 6.1 0.00 0.00 0.00 57 1012.0
20260905214532 81 21 0.0 1.7 0.00 0.00 0.00 59 1012.0
20260905213038 81 31 0.0 4.3 0.00 0.00 0.00 56 1012.0
20260905211522 81 15 0.0 5.2 0.00 0.00 0.00 54 1012.3
20260905210018 81 360 0.0 6.1 0.00 0.00 0.00 52 1012.4
20260905204517 81 62 0.0 5.2 0.00 0.00 0.00 54 1012.4
20260905203009 81 19 0.0 7.8 0.00 0.00 0.00 53 1012.4
20260905201504 81 59 0.9 5.2 0.00 0.00 0.00 49 1012.4
20260905200106 80 360 1.7 5.2 0.00 0.00 0.00 45 1012.3
20260905194555 80 37 0.0 3.5 0.00 0.00 0.00 46 1012.5
20260905193105 81 17 0.0 5.2 0.00 0.00 0.00 53 1012.7
20260905191553 81 57 0.0 7.8 0.00 0.00 0.00 57 1013.4
20260905190044 81 36 6.1 13.9 0.00 0.00 0.00 61 1011.9
20260905184537 80 17 7.0 11.3 0.00 0.00 0.00 56 1012.1
20260905183035 79 360 3.5 11.3 0.00 0.00 0.00 49 1011.9
20260905181534 79 26 2.6 9.6 0.00 0.00 0.00 41 1013.4
20260905180022 78 36 7.0 9.6 0.00 0.00 0.00 42 1014.0
20260905174518 77 14 4.3 7.8 0.00 0.00 0.00 15 1014.4
20260905173016 77 360 7.8 10.4 0.00 0.00 0.00 100 1014.1
20260905171522 75 342 6.1 8.7 0.00 0.00 0.00 100 1014.6
20260905170005 74 288 0.0 5.2 0.00 0.00 0.00 100 1014.8
20260905164601 73 309 4.3 9.6 0.00 0.00 0.00 100 1015.2
20260905163055 73 235 7.0 11.3 0.00 0.00 0.00 100 1015.5
20260905161550 74 5 0.0 0.0 0.00 0.00 0.00 100 1015.0
20260905160050 73 5 0.0 0.0 0.00 0.00 0.00 100 1014.9
20260905154554 73 5 0.0 0.9 0.00 0.00 0.00 100 1014.7
20260905153042 73 5 0.0 0.9 0.00 0.00 0.00 100 1014.7
20260905151536 73 5 0.0 0.0 0.00 0.00 0.00 100 1014.3
20260905150036 73 5 0.0 0.0 0.00 0.00 0.00 100 1014.2
20260905144535 72 5 0.0 0.0 0.00 0.00 0.00 100 1014.1
20260905143026 72 5 0.0 4.3 0.00 0.00 0.00 100 1013.9
20260905141520 73 360 0.0 0.0 0.00 0.00 0.00 100 1013.8
20260905140015 73 11 0.0 5.2 0.00 0.00 0.00 100 1013.5
20260905134511 73 16 0.9 3.5 0.00 0.00 0.00 100 1013.2
20260905133006 73 23 0.0 0.0 0.00 0.00 0.00 100 1012.9
20260905131501 73 23 0.0 0.0 0.00 0.00 0.00 100 1012.8
20260905130057 0 23 0.0 0.0 0.00 0.00 0.00 1012.6
20260905124552 0 23 0.0 0.0 0.00 0.00 0.00 1012.3
20260905123049 0 23 0.0 0.0 0.00 0.00 0.00 1012.1
20260905121544 0 23 0.0 0.0 0.00 0.00 0.00 1011.9
20260905120039 0 23 0.0 0.0 0.00 0.00 0.00 1011.9
20260905114542 0 20 0.0 0.0 0.00 0.00 0.00 1011.7
20260905113037 0 19 0.0 0.0 0.00 0.00 0.00 1011.7
20260905111526 0 18 0.0 2.6 0.00 0.00 0.00 1011.7
20260905110022 0 15 0.0 4.3 0.00 0.00 0.00 1011.6
20260905104522 0 15 0.0 1.7 0.00 0.00 0.00 1011.8
20260905103023 0 14 0.0 3.5 0.00 0.00 0.00 1011.9
20260905101509 72 9 0.0 4.3 0.00 0.00 0.00 100 1011.8
20260905100010 71 29 0.0 0.0 0.00 0.00 0.00 100 1011.9
20260905094600 71 29 0.0 0.0 0.00 0.00 0.00 100 1011.6
20260905093100 71 17 0.0 0.0 0.00 0.00 0.00 100 1011.1
20260905091600 72 15 0.0 0.0 0.00 0.00 0.00 100 1010.9
20260905090046 72 15 0.0 0.0 0.00 0.00 0.00 100 1011.1
20260905084549 72 15 0.0 0.0 0.00 0.00 0.00 100 1011.3
20260905083040 73 27 0.0 4.3 0.00 0.00 0.00 100 1011.3
20260905081534 73 360 0.0 0.9 0.00 0.00 0.00 100 1011.4
20260905080040 72 198 0.0 0.0 0.00 0.00 0.00 100 1011.5
20260905074524 72 198 0.0 0.0 0.00 0.00 0.00 100 1011.3
20260905073024 72 198 0.0 0.0 0.00 0.00 0.00 100 1011.5
20260905071515 72 198 0.0 0.0 0.00 0.00 0.00 100 1011.4
20260905070016 73 198 0.0 0.0 0.00 0.00 0.00 100 1011.4
20260905064525 73 198 0.0 0.0 0.00 0.00 0.00 100 1011.4
20260905063011 73 198 0.0 0.0 0.00 0.00 0.00 100 1011.4
20260905061506 73 198 0.0 0.0 0.00 0.00 0.00 100 1011.5
20260905060005 73 198 0.0 0.0 0.00 0.00 0.00 100 1011.3
20260905054558 74 198 0.0 0.0 0.00 0.00 0.00 100 1011.2
20260905053059 74 198 0.0 0.0 0.00 0.00 0.00 100 1011.2
20260905051549 74 198 0.0 0.0 0.00 0.00 0.00 100 1011.1
20260905050044 74 198 0.0 0.0 0.00 0.00 0.00 100 1011.1
20260905044542 74 198 0.0 0.0 0.00 0.00 0.00 100 1010.9
20260905043041 74 198 0.0 0.0 0.00 0.00 0.00 100 1010.9
20260905041540 74 198 0.0 0.0 0.00 0.00 0.00 100 1011.0
20260905040040 75 198 0.0 0.0 0.00 0.00 0.00 100 1010.9
20260905034539 75 198 0.0 0.0 0.00 0.00 0.00 100 1011.0
20260905033037 76 198 0.0 0.0 0.00 0.00 0.00 100 1011.0
20260905031531 76 198 0.0 0.0 0.00 0.00 0.00 100 1010.9
20260905030034 77 198 0.0 0.0 0.00 0.00 0.00 100 1010.9
20260905024530 77 198 0.0 0.0 0.00 0.00 0.00 5 1010.8
20260905023020 77 198 0.0 0.0 0.00 0.00 0.00 12 1010.6
20260905021518 78 198 0.0 0.0 0.00 0.00 0.00 18 1010.5
20260905020025 78 198 0.0 0.0 0.00 0.00 0.00 26 1010.4
20260905014516 79 198 0.0 0.0 0.00 0.00 0.00 24 1010.2
20260905013014 80 198 0.0 0.0 0.00 0.00 0.00 25 1010.1
20260905011510 81 198 0.0 0.0 0.00 0.00 0.00 29 1009.8
20260905010010 82 198 0.0 0.0 0.00 0.00 0.00 43 1009.7
20260905004510 83 198 0.0 0.0 0.00 0.00 0.00 49 1009.7
20260905003008 83 198 0.0 0.0 0.00 0.00 0.00 56 1009.7
20260905001507 84 198 0.0 0.0 0.00 0.00 0.00 63 1009.6
20260905000005 85 198 0.0 0.0 0.00 0.00 0.00 67 1009.5
20260904234507 86 198 0.0 0.0 0.00 0.00 0.00 69 1009.6